[Iaude] MPEC G127: 2024 GF2 [a=2.53,e=0.67,i=11.7,H=21.7,PHA]
    mpec at cfa.harvard.edu 
    mpec at cfa.harvard.edu
       
    Wed Apr 10 04:30:15 EDT 2024
    
    
  
M.P.E.C. 2024-G127                               Issued 2024 April 10, 08:28 UT
     The Minor Planet Electronic Circulars contain information on unusual
         minor planets, routine data on comets and natural satellites,
         and occasional editorial announcements.  They are published
    on behalf of Division F of the International Astronomical Union by the
          Minor Planet Center, Smithsonian Astrophysical Observatory,
                          Cambridge, MA 02138, U.S.A.
			  
             Prepared using the Tamkin Foundation Computer Network
                              MPC at CFA.HARVARD.EDU
            URL https://www.minorplanetcenter.net/    ISSN 1523-6714
                                    2024 GF2                                    
Observations:
     K24G02F*1C2024 04 08.24012510 04 15.460+20 16 40.55         20.72GVEG127G96
     K24G02F 1C2024 04 08.24542310 04 17.126+20 16 38.17         21.79GVEG127G96
     K24G02F 1C2024 04 08.25069710 04 18.844+20 16 35.72         21.03GVEG127G96
     K24G02F 1C2024 04 08.25597010 04 20.557+20 16 33.71         21.35GVEG127G96
     K24G02F  C2024 04 08.28243610 04 29.177+20 16 21.05         21.3 GVEG127H01
     K24G02F  C2024 04 08.28680910 04 30.602+20 16 18.82         21.4 GVEG127H01
     K24G02F  C2024 04 08.29922010 04 34.678+20 16 13.18         21.5 GVEG127H01
     K24G02F  C2024 04 08.30488510 04 36.538+20 16 10.53         21.3 GVEG127H01
     K24G02F KC2024 04 08.31049710 04 38.460+20 16 09.30         20.91GVEG127I52
     K24G02F KC2024 04 08.31359410 04 39.440+20 16 08.40         20.61GVEG127I52
     K24G02F KC2024 04 08.31670310 04 40.490+20 16 05.80         20.85GVEG127I52
     K24G02F KC2024 04 09.08285610 08 52.86 +20 10 24.6          21.2 GVEG127H21
     K24G02F KC2024 04 09.08844810 08 54.62 +20 10 22.2          21.4 GVEG127H21
     K24G02F KC2024 04 09.09264110 08 55.92 +20 10 20.8          21.5 GVEG127H21
     K24G02F 7C2024 04 09.86963610 13 00.373+20 04 12.80               VEG127Z84
     K24G02F 7C2024 04 09.87751510 13 02.692+20 04 08.47         21.4 GVEG127Z84
     K24G02F KC2024 04 10.18915 10 14 38.10 +20 01 36.6          21.8 RVEG127691
     K24G02F KC2024 04 10.20429 10 14 42.50 +20 01 28.3          21.8 RVEG127691
Observer details:
691 Steward Observatory, Kitt Peak-Spacewatch.  Observer R. A. Mastaler.
    0.9-m f/3 reflector + CCD.
G96 Mt. Lemmon Survey.  Observer H. Groeller.  Measurers T. Beuden, V. F.
    Carvajal, D. Fay, J. B. Fazekas, D. C. Fuls, A. R. Gibbs, A. D. Grauer, H.
    Groeller, J. K. Hogan, R. A. Kowalski, S. M. Larson, G. J. Leonard, D.
    Rankin, R. L. Seaman, F. C. Shelly, K. W. Wierzchos.  1.5-m reflector +
    10K CCD.
H01 Magdalena Ridge Observatory, Socorro.  Observers W. H. Ryan, E. V. Ryan.
    Measurer W. H. Ryan.  2.4-m f/8.9 Ritchey-Chretien + CCD.
H21 Astronomical Research Observatory, Westfield.  Observer R. Holmes.
    Measurers T. Linder, R. Holmes, L. Horn.  0.76-m f/3.0 astrograph + CCD.
I52 Steward Observatory, Mt. Lemmon Station.  Observer J. K. Hogan.  Measurers
    T. Beuden, V. F. Carvajal, D. Fay, J. B. Fazekas, D. C. Fuls, A. R. Gibbs,
    A. D. Grauer, H. Groeller, J. K. Hogan, R. A. Kowalski, S. M. Larson, G.
    J. Leonard, D. Rankin, R. L. Seaman, F. C. Shelly, K. W. Wierzchos.  1.0-m
    prime focus + CCD.
Z84 Calar Alto-Schmidt.  Observers F. Ocana, R. Kresken, M. Micheli, L.
    Conversi.  Measurers F. Ocana, M. Micheli.  0.8-m f/3 Schmidt + CCD.
Orbital elements:
2024 GF2                                            PHA, Earth MOID = 0.0482 AU
Epoch 2024 Mar. 31.0 TT = JDT 2460400.5                 MPC                     
M  13.61067              (2000.0)            P               Q                  
n   0.24454025     Peri.  290.46409     -0.26988531     -0.96273518             
a   2.5326149      Node   175.09362     +0.94178168     -0.26768911             
e   0.6741806      Incl.   11.74084     +0.20052228     -0.03851631             
P   4.03           H   21.75          G   0.15           U   9                  
Residuals in seconds of arc
240408 G96  0.7+  0.3-    240408 H01  0.1-  0.0     240409 H21  0.1+  0.0
240408 G96  0.2-  0.3-    240408 H01  0.0   0.0     240409 H21  0.0   0.5+
240408 G96  0.3-  0.4-    240408 I52  0.5+  0.4+    240409 Z84  0.2+  0.2+
240408 G96  0.4-  0.1-    240408 I52  0.0   0.9+    240409 Z84  0.4-  0.3-
240408 H01  0.1-  0.2+    240408 I52  0.4+  0.3-    240410 691  1.0+  0.5-
240408 H01  0.2-  0.1-    240409 H21  0.0   0.1-    240410 691  0.1+  1.2-
Ephemeris:
2024 GF2                 a,e,i = 2.53, 0.67, 12                  q = 0.8252
Date    TT    R. A. (2000) Decl.     Delta      r    Elong.  Phase     V
2024 03 11    04 52 27.8 +06 22 17   0.1996  0.9866    82.3    86.2    21.2
...
2024 03 26    08 15 32.8 +19 39 10   0.2274  1.1166   116.2    53.3    20.7
...
2024 04 03    09 30 25.0 +20 41 01   0.2940  1.1920   124.7    43.6    21.2
...
2024 04 09    10 08 25.6 +20 11 11   0.3569  1.2501   127.2    39.7    21.6
2024 04 10    10 13 40.1 +20 03 16   0.3682  1.2598   127.4    39.2    21.6
2024 04 11    10 18 39.2 +19 54 48   0.3797  1.2696   127.5    38.8    21.7
...
2024 04 17    10 44 07.4 +18 55 56   0.4525  1.3285   127.5    36.8    22.1
...
2024 04 25    11 09 43.2 +17 26 42   0.5580  1.4074   125.9    35.4    22.7
...
2024 05 10    11 44 04.9 +14 30 38   0.7776  1.5546   120.3    34.1    23.6
A. U. Tomatic                (C) Copyright 2024 MPC           M.P.E.C. 2024-G127
    
    
More information about the Iaude
mailing list